Weather History for KAXS - June, 2014

Change the Weather History Date:

Tuesday, June 10, 2014

  Actual Average (KLTS) Record (KLTS)
Temperature  
Mean Temperature 72 °F -  
Max Temperature 81 °F 88 °F 105 °F (2012)
Min Temperature 62 °F 65 °F 56 °F (2008)
Cooling Degree Days 6    
Growing Degree Days 22 (Base 50)    
Moisture  
Dew Point 58 °F    
Average Humidity 66    
Maximum Humidity 80    
Minimum Humidity 42    
Precipitation  
Precipitation 0.00 in - - ()
Sea Level Pressure  
Sea Level Pressure 29.90 in    
Wind  
Wind Speed 14 mph (NNW)    
Max Wind Speed 24 mph    
Max Gust Speed 30 mph    
Visibility 10 miles    
Events      
Averages and records for this station are not official NWS values.
T = Trace of Precipitation, MM = Missing Value Source: NWS Daily Summary

Daily Weather History Graph

Daily Weather History Graph

Search for Another Location

Airport or City:

Trip Planner

Search our weather history database for the weather conditions in past years. The results will help you decide how hot, cold, wet, or windy it might be!

Date:

Astronomy

Jun. 10, 2014 Rise Set
Actual Time 6:23 AM CDT 8:50 PM CDT
Civil Twilight 5:54 AM CDT 9:19 PM CDT
Nautical Twilight 5:18 AM CDT 9:55 PM CDT
Astronomical Twilight 4:38 AM CDT 10:35 PM CDT
Moon 6:22 PM CDT (6/10) 4:23 AM CDT (6/10)
Length of Visible Light 15h 25m
Length of Day
14h 26m
Waxing Gibbous, 92% of the Moon is Illuminated
Jun 10
Waxing Gibbous
Jun 12
Full
Jun 19
Last Quarter
Jun 27
New
Jul 5
First Quarter

Hourly Weather History & Observations

Time (CDT) Temp. Heat Index Dew Point Humidity Pressure Visibility Wind Dir Wind Speed Gust Speed Precip Events Conditions
12:15 AM 64.4 °F - 55.0 °F 72% 29.85 in 10.0 mi NW 19.6 mph 24.2 mph N/A   Scattered Clouds
12:35 AM 63.9 °F - 55.0 °F 73% 29.85 in 10.0 mi NW 17.3 mph - N/A   Clear
12:55 AM 63.9 °F - 55.2 °F 73% 29.85 in 10.0 mi NW 16.1 mph 21.9 mph N/A   Clear
1:15 AM 63.9 °F - 55.2 °F 73% 29.85 in 10.0 mi NW 17.3 mph - N/A   Clear
1:35 AM 63.3 °F - 55.4 °F 75% 29.85 in 10.0 mi NW 10.4 mph - N/A   Clear
1:55 AM 63.0 °F - 55.2 °F 76% 29.85 in 10.0 mi NW 16.1 mph - N/A   Clear
2:15 AM 63.5 °F - 55.6 °F 75% 29.85 in 10.0 mi NW 13.8 mph - N/A   Mostly Cloudy
2:35 AM 63.1 °F - 55.0 °F 75% 29.85 in 10.0 mi NW 16.1 mph - N/A   Scattered Clouds
2:55 AM 63.7 °F - 55.4 °F 74% 29.84 in 10.0 mi NW 18.4 mph 23.0 mph N/A   Mostly Cloudy
3:15 AM 63.9 °F - 55.4 °F 74% 29.84 in 10.0 mi NW 17.3 mph 26.5 mph N/A   Overcast
3:35 AM 63.9 °F - 55.6 °F 74% 29.84 in 10.0 mi NW 17.3 mph 23.0 mph N/A   Overcast
4:15 AM 64.4 °F - 55.9 °F 74% 29.85 in 10.0 mi NNW 19.6 mph 24.2 mph N/A   Overcast
4:35 AM 64.4 °F - 56.1 °F 74% 29.85 in 10.0 mi NNW 15.0 mph - N/A   Mostly Cloudy
4:55 AM 63.5 °F - 55.8 °F 76% 29.86 in 10.0 mi NW 13.8 mph 20.7 mph N/A   Scattered Clouds
5:15 AM 62.8 °F - 55.6 °F 77% 29.86 in 10.0 mi NNW 17.3 mph - N/A   Clear
5:35 AM 63.0 °F - 55.8 °F 77% 29.87 in 10.0 mi NNW 13.8 mph - N/A   Scattered Clouds
5:55 AM 63.0 °F - 56.3 °F 79% 29.87 in 10.0 mi NNW 11.5 mph - N/A   Scattered Clouds
6:15 AM 62.6 °F - 56.3 °F 80% 29.88 in 10.0 mi NNW 10.4 mph - N/A   Clear
6:35 AM 62.6 °F - 56.3 °F 80% 29.89 in 10.0 mi NW 10.4 mph - N/A   Clear
6:55 AM 63.0 °F - 56.5 °F 79% 29.89 in 10.0 mi NW 12.7 mph - N/A   Clear
7:15 AM 63.1 °F - 56.3 °F 78% 29.90 in 10.0 mi NW 15.0 mph - N/A   Clear
7:35 AM 63.7 °F - 56.3 °F 77% 29.91 in 10.0 mi NNW 19.6 mph - N/A   Clear
7:55 AM 63.9 °F - 56.3 °F 76% 29.92 in 10.0 mi NNW 16.1 mph 25.3 mph N/A   Clear
8:15 AM 63.9 °F - 56.5 °F 77% 29.93 in 10.0 mi NNW 17.3 mph 23.0 mph N/A   Mostly Cloudy
8:35 AM 64.4 °F - 56.7 °F 76% 29.93 in 10.0 mi NNW 19.6 mph 27.6 mph N/A   Overcast
9:00 AM 66.6 °F - 57.9 °F 74% 29.94 in 10.0 mi NNW 20.7 mph 26.5 mph N/A   Mostly Cloudy
9:15 AM 66.9 °F - 58.3 °F 74% 29.94 in 10.0 mi NNW 20.7 mph 26.5 mph N/A   Mostly Cloudy
9:35 AM 66.7 °F - 58.1 °F 74% 29.95 in 10.0 mi NNW 24.2 mph 29.9 mph N/A   Mostly Cloudy
10:00 AM 67.6 °F - 58.5 °F 72% 29.95 in 10.0 mi NNW 24.2 mph 29.9 mph N/A   Mostly Cloudy
10:15 AM 67.8 °F - 58.3 °F 71% 29.96 in 10.0 mi NNW 21.9 mph - N/A   Mostly Cloudy
10:35 AM 66.6 °F - 57.7 °F 73% 29.97 in 10.0 mi NNW 17.3 mph 25.3 mph N/A   Mostly Cloudy
11:00 AM 67.8 °F - 58.3 °F 71% 29.97 in 10.0 mi NW 18.4 mph 24.2 mph N/A   Overcast
11:15 AM 68.0 °F - 58.3 °F 71% 29.97 in 10.0 mi NNW 21.9 mph - N/A   Overcast
11:35 AM 69.3 °F - 58.6 °F 69% 29.97 in 10.0 mi NNW 21.9 mph 25.3 mph N/A   Overcast
11:55 AM 69.6 °F - 59.0 °F 69% 29.98 in 10.0 mi NNW 18.4 mph - N/A   Overcast
12:15 PM 70.2 °F - 59.2 °F 68% 29.98 in 10.0 mi NNW 18.4 mph 25.3 mph N/A   Overcast
12:55 PM 71.6 °F - 59.0 °F 64% 29.98 in 10.0 mi NNW 13.8 mph 18.4 mph N/A   Mostly Cloudy
1:15 PM 73.0 °F - 59.9 °F 63% 29.97 in 10.0 mi North 12.7 mph 24.2 mph N/A   Mostly Cloudy
1:35 PM 74.1 °F - 59.9 °F 61% 29.97 in 10.0 mi North 10.4 mph 16.1 mph N/A   Scattered Clouds
1:55 PM 74.7 °F - 59.9 °F 60% 29.97 in 10.0 mi NNW 12.7 mph - N/A   Scattered Clouds
2:35 PM 76.1 °F - 59.7 °F 57% 29.96 in 10.0 mi NNW 6.9 mph - N/A   Scattered Clouds
3:15 PM 77.4 °F - 59.5 °F 54% 29.95 in 10.0 mi NNW 8.1 mph - N/A   Clear
3:55 PM 78.6 °F - 60.1 °F 53% 29.94 in 10.0 mi NW 6.9 mph - N/A   Clear
4:15 PM 79.0 °F - 60.3 °F 53% 29.93 in 10.0 mi NNW 6.9 mph - N/A   Clear
4:35 PM 79.2 °F - 58.3 °F 49% 29.93 in 10.0 mi NW 3.5 mph - N/A   Clear
4:55 PM 79.7 °F - 58.5 °F 48% 29.92 in 10.0 mi WNW 3.5 mph - N/A   Clear
5:15 PM 79.9 °F - 58.6 °F 48% 29.92 in 10.0 mi NW 5.8 mph - N/A   Clear
5:35 PM 80.8 °F 81.1 °F 58.5 °F 46% 29.91 in 10.0 mi North 5.8 mph - N/A   Clear
6:15 PM 81.1 °F 81.4 °F 58.3 °F 46% 29.89 in 7.0 mi North 5.8 mph - N/A   Clear
6:35 PM 81.0 °F 80.9 °F 56.7 °F 43% 29.88 in 10.0 mi North 5.8 mph - N/A   Clear
6:55 PM 81.1 °F 81.0 °F 55.9 °F 42% 29.88 in 10.0 mi NNE 5.8 mph - N/A   Clear
7:15 PM 80.8 °F 80.9 °F 57.2 °F 44% 29.87 in 10.0 mi NNE 5.8 mph - N/A   Clear
7:35 PM 79.9 °F - 57.0 °F 45% 29.88 in 10.0 mi Calm Calm - N/A   Clear
7:55 PM 80.4 °F 80.4 °F 55.6 °F 42% 29.88 in 10.0 mi Calm Calm - N/A   Clear
8:15 PM 79.5 °F - 57.2 °F 46% 29.88 in 10.0 mi East 4.6 mph - N/A   Clear
8:35 PM 77.7 °F - 58.8 °F 52% 29.88 in 10.0 mi ESE 4.6 mph - N/A   Clear
8:55 PM 77.0 °F - 58.1 °F 52% 29.88 in 10.0 mi Calm Calm - N/A   Clear
9:15 PM 75.4 °F - 61.2 °F 61% 29.89 in 10.0 mi SE 3.5 mph - N/A   Clear
9:55 PM 73.4 °F - 60.1 °F 63% 29.89 in 10.0 mi SE 4.6 mph - N/A   Clear
10:15 PM 72.1 °F - 59.7 °F 65% 29.89 in 10.0 mi SE 5.8 mph - N/A   Clear
10:35 PM 71.2 °F - 59.7 °F 67% 29.90 in 10.0 mi SE 4.6 mph - N/A   Clear
11:15 PM 70.3 °F - 60.4 °F 71% 29.90 in 10.0 mi SE 5.8 mph - N/A   Clear
11:35 PM 68.9 °F - 61.0 °F 76% 29.90 in 10.0 mi SSE 4.6 mph - N/A   Clear
11:55 PM 68.7 °F - 60.3 °F 74% 29.90 in 10.0 mi SE 4.6 mph - N/A   Clear